Regional Weather Roundup
Issued by NWS

Home | Current Version | Previous Version | Text Only | Print | Product List | Glossary On
Versions: 1 2 3 4 5 6 7 8 9 10 11 12 13 14 15 16 17 18 19 20 21 22 23 24 25 26 27 28 29 30 31 32 33 34 35 36 37 38 39 40 41 42 43 44 45 46 47 48 49 50
000
ASHW40 PHFO 250743
RWRHI

WEATHER ROUNDUP FOR HAWAII
NATIONAL WEATHER SERVICE HONOLULU HI
900 PM HST FRI APR 24 2015

THIS IS AN AUTOMATED REPORT THAT HAS NOT BEEN QUALITY CONTROLLED.

NOTE..."FAIR" INDICATES FEW OR NO CLOUDS BELOW 12,000 FEET WITH NO
SIGNIFICANT WEATHER AND/OR OBSTRUCTIONS TO VISIBILITY.

* - THESE SITES REPORT LIMITED FIELDS

HIZ001>004-250800-
KAUAI-NIIHAU-

CITY           SKY/WX    TMP DP  RH WIND       PRES   REMARKS
LIHUE APT      CLOUDY    77  68  73 S8        29.99R
PORT ALLEN*      N/A     77 N/A N/A SE8         N/A
POIPU*           N/A     77 N/A N/A S5          N/A
PRINCEVILLE*     N/A     75 N/A N/A MISG        N/A
KOKOLE POINT*  NOT AVBL
MOLOAA DAIRY*  NOT AVBL
WAIMEA HTS*      N/A     72  68  88 NE3         N/A
PUU OPAE*        N/A     66  64  94 E8G15       N/A
PUU LUA*       NOT AVBL
MAKAHA RIDGE*    N/A    N/A N/A N/A SE6G18      N/A
$$

HIZ005>011-250800-
OAHU-

CITY           SKY/WX    TMP DP  RH WIND       PRES   REMARKS
HONOLULU       MOCLDY    75  69  81 S8        29.99R
KALAELOA       CLOUDY    77  69  76 S10       30.00R
KANEOHE MCB    LGT RAIN  77  69  76 CALM      29.96R
WHEELER FIELD  FAIR      72  67  85 NE5       30.00
BELLOWS*         N/A    N/A N/A N/A SW2         N/A
KAHUKU*          N/A    N/A N/A N/A E2          N/A
WHEELER*       NOT AVBL
WAIANAE HARBOR NOT AVBL
DILLINGHAM*      N/A     72  66  83 MISG        N/A
KAHUKU TRN*      N/A     73  68  83 SE2G10      N/A
KAWAILOA*        N/A     70  66  88 E2          N/A
KII*             N/A     75  68  78 CALM        N/A
MAKUA RANGE*     N/A     73  68  83 E3          N/A
OAHU FOREST NW   N/A    N/A N/A N/A CALM        N/A
SCHOFIELD BRK*   N/A     72  68  88 S1          N/A
SCHOFIELD S*   NOT AVBL
WAIANAE VLY*     N/A     73  70  88 S5          N/A
KUAOKALA*        N/A     73  70  88 SE9G17      N/A
HONOULIUULI*   NOT AVBL
MOKUOLOE IS*     N/A    N/A N/A N/A MISG        N/A
PALEHUA*         N/A     66  64  94 SE7G14      N/A
WAIAWA PHB*    NOT AVBL
$$

HIZ012>013-250800-
MOLOKAI-

CITY           SKY/WX    TMP DP  RH WIND       PRES   REMARKS
MOLOKAI AIRPT  CLEAR     70  64  81 NW5       30.00R
KALAUPAPA      NOT AVBL
MAKAPULAPAI*     N/A     75  66  73 E8G17       N/A
MOLOKAI 1*       N/A     63  59  88 CALM        N/A
PUU ALII*        N/A     57  56  97 CALM        N/A
$$

HIZ016-250800-
KAHOOLAWE-

CITY           SKY/WX    TMP DP  RH WIND       PRES   REMARKS
KAHOOLAWE*       N/A     70 N/A N/A E17G28      N/A
HAKIOAWA*        N/A     70  65  84 MISG      30.43R
HONOKANAIA*      N/A     77  67  71 NE17G31     N/A
KANELOA*         N/A     73  66  78 MISG      29.21
KEALIALALO*      N/A     73  66  78 SE18G35     N/A
LUA MAKIKA*    NOT AVBL
$$

HIZ014>015-250800-
LANAI-

CITY           SKY/WX    TMP DP  RH WIND       PRES   REMARKS
LANAI CITY     FAIR      67  63  87 E7        30.05R
LANAI 1*         N/A     70  64  83 E6G12       N/A
$$

HIZ017>028-250800-
MAUI-

CITY           SKY/WX    TMP DP  RH WIND       PRES   REMARKS
KAHULUI        PTCLDY    73  65  75 S3        29.98R
KAPALUA-W MAUI NOT AVBL
HANA AIRPORT   MOCLDY    75  66  73 E5        30.05R
HANA*            N/A     75 N/A N/A E7G20       N/A
HALEAKALA SUMM   N/A     50   3  14 W9          N/A
MAALAEA BAY*   NOT AVBL
HALEAKALA*     NOT AVBL
KAUPO GAP*       N/A     61  59  94 E5G18       N/A
KULA 1*        NOT AVBL
$$

HIZ023>026-250800-
BIG ISLAND OF HAWAII COAST AND LOWER SLOPES-

CITY           SKY/WX    TMP DP  RH WIND       PRES   REMARKS
KAILUA KONA    PTCLDY    79  68  69 NW10      29.98R
HILO           PTCLDY    72  66  81 S6        30.04S
HONOKAA*       NOT AVBL
KAWAIHAE MWT*    N/A     79 N/A N/A SE2         N/A
KAWAIHAE*        N/A     79 N/A N/A SW6         N/A
SOUTH POINT*     N/A     72 N/A N/A NE18G29     N/A
UPOLU AIRPORT*   N/A    N/A N/A N/A E7          N/A
KAMUELA*       CLOUDY    63  63 100 CALM      30.11S
HAKALAU*         N/A     51  51 100 S7G14       N/A
KALOKO-HONOKO*   N/A     77  66  69 NE5       29.97R
PALI 2*          N/A     63  59  88 E3G10       N/A
KEALAKOMO*       N/A     75  66  73 E9G15       N/A
KAUPULEHU*       N/A     70  66  88 S5          N/A
KAPAPALA*        N/A     67  62  83 NE3G10      N/A
LOWER KAHUKU*    N/A     61  59  94 N3G14       N/A
PUHE CS*         N/A     77  66  69 S1          N/A
PUHO CS*         N/A     77  65  66 NE1         N/A
PTA KEAMUKU*     N/A    N/A N/A N/A CALM        N/A
WAIKOLOA*        N/A     73  68  83 W7          N/A
$$

HIZ027>028-250800-
BIG ISLAND OF HAWAII INTERIOR AND SUMMMITS-

CITY           SKY/WX    TMP DP  RH WIND       PRES   REMARKS
BRADSHAW FIELD PTCLDY    53  49  87 SE5       30.31R
MK VISITOR CEN NOT AVBL
MAUNA KEA*       N/A     41  -4  15 NE9         N/A
MAUNA LOA*       N/A     50   5  16 MISG        N/A
MAUNA LOA 1*   NOT AVBL
PTA KIPUKA*      N/A     61  57  88 NE3         N/A
PTA RANGE 17*    N/A     57  52  82 E6G12       N/A
PTA WEST*        N/A     61  59  94 NW2G8       N/A
NENE CABIN*      N/A     50 N/A N/A NE5G10      N/A
AHUMOA*          N/A     46  46 100 NE2         N/A
PTA PORTABLE*  NOT AVBL
PUU MALI*        N/A    N/A N/A N/A SW10        N/A
$$

HIC003-250800-
NORTHWEST ISLANDS-

CITY           SKY/WX    TMP DP  RH WIND       PRES   REMARKS
MIDWAY ISLAND  CLOUDY    64  57  77 NE14G21   30.17R
MIDWAY NOS*    NOT AVBL
FRENCH FRIGATE NOT AVBL
$$

PHZ110>124-180-250800-
BUOY REPORTS

STATION/POSITION TIME  TEMP    WIND        PRES    WAVE   SWELL
                       AIR SEA DIR/SP/G            HT/PER HT/DIR
                 (UTC) (F)     (DEG/KT/KT) (MB)    (FT/S) (FT/D)
BUOY 51001       NOT AVBL
BUOY 51101       0700   72 74  250/  6/  8 1012.9R   8/10   8/ 60
BUOY 51100       0700   67     280/ 12       N/A
BUOY 51002       0700   78 79  100/ 17/ 21 1014.6R   8/10   7/110
BUOY 51003       0700   78 79  160/ 16/ 17 1014.6R   8/11   5
BUOY 51004       0618   77 77   90/ 19/ 23 1016.1R   8/ 9   5/ 60
BARBERS PT BUOY  NOT AVBL
WAIMEA BAY BUOY  0700      78                N/A     5/ 8   2/360
KAILUA BAY BUOY  0700      77                N/A     7/ 9   2/ 80
LANAI BUOY       0700      78                N/A     4/13   2/190
BARBERS PT 2     0700      78                N/A     5/11   3/190
PAUWELA MAUI     0700      76                N/A     7/ 9   2/ 80
HILO             0700      77                N/A     8/10   2/130
KANEOHE BAY BUOY 0700      76                N/A     6/ 8   2/ 60
HANALEI KAUAI    0700      78                N/A     7/10   3/ 50
KAHULUI HARBOR   0700   76 78  340/  4/  6 1015.1R
HONOLULU HARBOR  0700   78 79  200/  5/  8 1015.6R
KILO NALU        NOT AVBL
HILO HARBOR      0700   73 76  200/  5/  8 1017.2R
MOKUOLOE         0700   76     190/  2/  2   N/A
NAWILIWILI       0700   77 78  170/  4/  9 1015.3R
WHOTS BUOY       NOT AVBL
BUOY 51028       NOT AVBL
$$

......................KEY........................................
  SKY/WX - SKY CONDITIONS/PRESENT WEATHER
  TMP    - TEMPERATURE IN FAHRENHEIT
  DWPT   - DEWPOINT IN FAHRENHEIT
  RH     - RELATIVE HUMIDITY IN PERCENT
  WIND   - DIRECTION AND SPEED /MPH FOR ISLANDS...KTS FOR BUOYS/
  PRES   - MEAN SEA LEVEL PRESSURE IN INCHES OF HG
  VSB    - VISIBILITY IN MILES
  HX     - HEAT INDEX
  WCI    - WIND CHILL INDEX
  VRB    - VARIABLE WIND DIRECTION
  N/A    - NOT AVAILABLE


USA.gov is the U.S. government's official web portal to all federal, state and local government web resources and services.